www.pogodaiklimat.ru

Архив погоды в Реконкисте (Аргентина)

Время
(UTC), дата
10 6.04
11 6.04
12 6.04
13 6.04
14 6.04
15 6.04
16 6.04
17 6.04
18 6.04
19 6.04
20 6.04
21 6.04
22 6.04
23 6.04
00 7.04
01 7.04
02 7.04
03 7.04
04 7.04
05 7.04
06 7.04
07 7.04
08 7.04
09 7.04
10 7.04
11 7.04
12 7.04
13 7.04
14 7.04
15 7.04
16 7.04
17 7.04
18 7.04
19 7.04
20 7.04
21 7.04
22 7.04
23 7.04
00 8.04
01 8.04
02 8.04
03 8.04
04 8.04
05 8.04
06 8.04
07 8.04
08 8.04
09 8.04
10 8.04
11 8.04
12 8.04
13 8.04
14 8.04
15 8.04
16 8.04
17 8.04
18 8.04
19 8.04
20 8.04
21 8.04
22 8.04
23 8.04
00 9.04
01 9.04
02 9.04
03 9.04
04 9.04
05 9.04
06 9.04
07 9.04
08 9.04
09 9.04
10 9.04
11 9.04
12 9.04
13 9.04
14 9.04
15 9.04
16 9.04
17 9.04
18 9.04
19 9.04
20 9.04
21 9.04
22 9.04
23 9.04
00 10.04
01 10.04
02 10.04
03 10.04
04 10.04
05 10.04
06 10.04
07 10.04
08 10.04
09 10.04
10 10.04
11 10.04
12 10.04
13 10.04
14 10.04
15 10.04
16 10.04
17 10.04
18 10.04
19 10.04
20 10.04
21 10.04
22 10.04
23 10.04
00 11.04
01 11.04
02 11.04
03 11.04
04 11.04
05 11.04
06 11.04
07 11.04
08 11.04
09 11.04
10 11.04
11 11.04
12 11.04
13 11.04
14 11.04
15 11.04
16 11.04
17 11.04
18 11.04
19 11.04
20 11.04
21 11.04
22 11.04
23 11.04
00 12.04
01 12.04
02 12.04
03 12.04
04 12.04
05 12.04
06 12.04
07 12.04
08 12.04
09 12.04
11 12.04
12 12.04
13 12.04
14 12.04
15 12.04
16 12.04
17 12.04
18 12.04
19 12.04
20 12.04
21 12.04
22 12.04
23 12.04
00 13.04
01 13.04
02 13.04
03 13.04
04 13.04
05 13.04
06 13.04
07 13.04
08 13.04
Ветер
(напр.,м/с)
Видим. Явления Облачность Т
(С)
Тd
(С)
f
(%)
Тe
(С)
Тes
(С)
Комфортность P
(гПа)
Po
(гПа)
Тmin
(С)
Tmax
(С)
R
(мм)
R24
(мм)
S
(см)
В 6 10 км дымка 9/0
[Ac As Cs]
+20.9 +18.2 85 +25 +25 комфорт 1013.5 1007.4
В 4 10 км дымка 10/0
[Ac As]
+20.9 +18.4 86 +25 +25 комфорт 1013.6 1007.4
В 6 10 км дымка 10/3 150 м
[St Ac As]
+21.2 +18.8 86 +26 +26 душно 1013.3 1007.0 +20.4 +25.2
В 6 15 км 10/1 150 м
[St Ac As]
+22.0 +19.0 83 +27 +28 душно 1013.2 1007.0
В 6 8000 м слаб. дождь 10/1 150 м
[St Ac As]
+22.1 +19.5 85 +28 +29 душно 1012.4 1006.2
В 4 8000 м слаб. дождь 10/1 150 м
[St Ac As]
+22.3 +19.8 86 +28 +31 душно 1012.3 1006.1
Ю 6 8000 м в посл. час дождь туман 10/5 210 м
[St Ac As]
+21.4 +19.7 90 +26 +27 душно 1013.1 1006.9
ЮВ 9 8000 м гроза без осадков {дождь} туман 10/3 210 м
[Cb cap Ac As]
+20.0 +18.1 89 +22 +23 комфорт 1011.0 1004.8
ЮВ 6 8000 м гроза без осадков {дождь} туман 10/8 210 м
[Cb cap Ac As]
+19.3 +17.7 90 +21 +21 комфорт 1010.3 1004.1 0.0
ЮВ 8 4000 м гроза, ливневой дождь туман 10/5 210 м
[Cb cap As op]
+18.7 +18.2 97 +19 +19 1010.5 1004.2
ЮВ 7 3000 м гроза, ливневой дождь туман 10/5 180 м
[Cb cap As op]
+18.2 +17.6 96 +18 +18 1010.4 1004.2
ЮВ 6 6000 м слаб. ливневой дождь, в посл. час гроза туман 10/4 180 м
[Frnb As op]
+17.7 +16.5 93 +17 +17 1011.2 1005.0
ЮВ 7 8000 м в посл. час дождь {гроза} туман 10/1 180 м
[Frnb As op]
+17.5 +16.5 94 +17 +17 1011.5 1005.3
В 9 8000 м дымка {дождь} 10/1 180 м
[Frnb As op]
+17.9 +16.1 89 +17 +17 1011.2 1005.0
Ю 6 8000 м дымка {гроза, дождь} 10/3 180 м
[Frnb As op]
+17.8 +16.0 89 +17 +17 1013.3 1007.0 +17.3 +22.3 7
ЮВ 5 8000 м дымка 10/5 180 м
[Frnb As op]
+17.6 +16.6 94 +17 +17 1013.7 1007.4
ЮВ 4 5000 м дождь туман 10/4 180 м
[Frnb As op]
+17.2 +21.6 100 +17 +17 1013.8 1007.6
ЮВ 4 5000 м слаб. дождь туман 10/4 180 м
[Frnb As op]
+17.4 +17.1 98 +17 +17 1014.4 1008.2
ЮВ 4 8000 м в посл. час дождь туман 9/4 180 м
[Frnb As op]
+17.4 +16.7 96 +17 +17 1013.8 1007.6
ЮВ 4 8000 м дымка {дождь} 9/3 180 м
[Frnb Ac As]
+17.2 +16.5 96 +17 +17 1012.9 1006.6
ЮВ 4 8000 м дымка {дождь} 9/3 180 м
[Frnb Ac As]
+17.5 +16.3 93 +17 +17 1012.4 1006.1 10
ЮВ 3 8000 м дымка 9/1 180 м
[Frnb Ac As]
+17.4 +16.7 96 +18 +18 1012.6 1006.2
ЮВ 3 8000 м дымка 10/10 180 м
[St]
+17.6 +16.6 94 +18 +18 1012.7 1006.4
Ю 4 8000 м дымка 10/10 180 м
[St]
+17.2 +16.7 97 +17 +17 1013.5 1007.2
Ю 4 8000 м дымка 9/9 180 м
[St]
+17.4 -6.7 19 +17 +17 1013.6 1007.3
ЮВ 4 8000 м дымка 10/10 180 м
[St]
+17.8 +16.8 94 +18 +18 1014.3 1008.0
ЮВ 5 8000 м дымка 10/10 180 м
[St]
+18.0 +17.0 94 +18 +18 1014.9 1008.6 +16.8 +18.0 16
Ю 6 8000 м дымка 10/10 240 м
[St]
+18.0 +16.9 93 +17 +17 1015.0 1008.6
Ю 5 8000 м дымка 10/10 240 м
[St]
+19.4 +17.6 89 +21 +21 комфорт 1014.9 1008.6
ЮВ 4 10 км дымка 10/10 240 м
[St]
+19.3 +17.5 89 +21 +21 комфорт 1015.1 1008.8
ЮВ 4 10 км дымка 10/10 240 м
[St]
+20.0 +18.1 89 +23 +23 комфорт 1015.1 1008.8
ЮВ 4 10 км дымка 10/10 240 м
[St]
+21.0 +18.6 86 +26 +26 душно 1014.4 1008.1
Ю 6 15 км 8/5 450 м
[Sc Ac As]
+21.8 +18.7 83 +27 +28 душно 1013.4 1007.2
Ю 7 15 км 10/10 450 м
[Sc]
+21.0 +18.1 84 +25 +25 комфорт 1013.8 1007.6
Ю 5 15 км 9/5 450 м
[Sc Ac trans]
+21.5 +18.3 82 +26 +26 душно 1013.8 1007.6
Ю 3 15 км 8/4 600 м
[Sc Ac trans]
+21.4 +18.6 84 +26 +26 душно 1013.5 1007.3
Ю 4 15 км 9/5 600 м
[St Ac trans]
+21.0 +18.0 83 +25 +25 комфорт 1013.6 1007.4
ЮВ 2 15 км 9/6 900 м
[Sc Ac As]
+20.5 +18.8 90 +25 +25 комфорт 1013.9 1007.7
Ю 2 8000 м дымка 5/4 900 м
[Sc Ac As]
+19.1 +17.8 92 +21 +21 комфорт 1014.3 1008.0 +17.8 +22.1
Ю 2 8000 м дымка 4/3 900 м
[Sc Ac As]
+18.6 +17.6 94 +20 +20 1014.6 1008.2
Ю 2 8000 м дымка 8/3 900 м
[Sc Ac As]
+18.4 +17.6 95 +20 +20 1014.8 1008.5
штиль 0 50 км дымка ?/? +18.6 +18.0 96 +20 +20 1014.6 1008.2
Ю 8 8000 м дымка 8/1 900 м
[Sc Ac As]
+19.1 +18.6 97 +20 +20 1014.5 1008.2
штиль 0 8000 м дымка 10/0
[Ac As]
+19.4 +18.6 95 +22 +22 комфорт 1014.6 1008.4
ЮЗ 1 8000 м дымка 10/0
[Ac As]
+19.0 +18.2 95 +22 +22 комфорт 1014.0 1007.8
ЮЗ 2 6000 м дымка 10/0
[Ac As]
+19.1 +18.5 96 +22 +22 комфорт 1013.6 1007.4
ЮЗ 1 6000 м дымка 10/0
[Ac As]
+19.1 +18.8 98 +22 +22 комфорт 1013.3 1007.0
ЮЗ 1 6000 м дымка 10/0
[Ac As]
+19.1 +18.7 98 +22 +22 комфорт 1013.1 1006.9
ЮЗ 2 6000 м дымка 10/0
[Ac As]
+19.1 +18.5 96 +22 +22 комфорт 1013.1 1006.9
СЗ 1 6000 м дымка 10/0
[Ac As]
+19.7 +18.9 95 +24 +24 комфорт 1013.5 1007.3
ЮВ 1 8000 м дымка 10/0
[Ac As]
+20.4 +19.1 92 +25 +26 комфорт 1013.8 1007.6 +17.7 +20.4
ЮВ 2 8000 м дымка 9/0
[Ac As]
+21.9 +19.7 87 +27 +30 душно 1013.8 1007.6
Ю 1 15 км 3/1 750 м
[Sc Ac As]
+24.3 +20.2 78 +30 +39 очень душно 1013.4 1007.2
СВ 2 15 км 8/8 750 м
[Sc]
+25.6 +18.6 65 +30 +33 душно 1012.6 1006.4
В 2 15 км 8/8 750 м
[Sc]
+26.1 +17.3 58 +30 +33 душно 1012.2 1006.0
З 1 15 км 9/9 750 м
[Sc]
+26.3 +18.6 63 +31 +33 душно 1011.4 1005.2
В 2 15 км 9/9 750 м
[Sc]
+27.2 +18.7 60 +32 +33 очень душно 1010.7 1004.6
ЮВ 3 15 км 9/9 750 м
[Sc]
+26.7 +18.3 60 +31 +32 душно 1010.2 1004.1
В 2 15 км 5/5 750 м
[Sc]
+27.1 +19.3 62 +33 +34 очень душно 1010.1 1004.0
В 2 15 км 5/5 750 м
[Sc]
+26.1 +20.2 70 +32 +32 очень душно 1009.7 1003.6
В 2 15 км 4/4 750 м
[Sc]
+25.0 +20.3 75 +31 +31 очень душно 1009.7 1003.4
ЮВ 1 15 км 3/3 750 м
[Sc]
+23.0 +19.9 83 +30 +30 очень душно 1009.9 1003.7
ЮВ 1 10 км дым 3/3 900 м
[Sc]
+22.0 +19.2 84 +27 +27 душно 1010.2 1004.0 +20.2 +27.2
ЮВ 3 10 км дымка ясно +21.8 +19.5 87 +27 +27 душно 1010.7 1004.5
ЮВ 1 10 км дымка ясно +21.0 +19.4 91 +27 +27 душно 1011.0 1004.8
В 2 10 км дымка ясно +21.0 +19.4 91 +27 +27 душно 1011.3 1005.2
В 2 10 км дымка 8/0
[Ac As]
+21.0 +19.6 92 +27 +27 душно 1011.8 1005.7
В 2 10 км дымка 8/0
[Ac As]
+21.4 +19.9 91 +26 +26 душно 1012.1 1006.0
Ю 1 10 км дымка 6/0
[Ac As]
+21.4 +20.0 92 +27 +27 душно 1012.0 1005.8
ЮВ 2 6000 м дымка 5/0
[Ac As]
+21.0 +20.1 95 +27 +27 душно 1011.9 1005.8
ЮВ 2 6000 м дымка 3/0
[Ac As]
+20.3 +19.7 96 +25 +25 комфорт 1012.1 1006.0
ЮВ 2 6000 м дымка ясно +20.0 +18.7 92 +24 +24 комфорт 1012.8 1006.6
ЮВ 2 800 м местами туман поземный 1/0
[Ac As]
+19.9 +17.1 84 +23 +23 комфорт 1013.5 1007.3
В 2 4000 м в посл. час туман туман 1/0
[Ac As]
+20.3 +19.7 96 +25 +25 комфорт 1013.9 1007.7
В 3 6000 м дымка {туман} 1/1 180 м
[Frnb]
+22.3 +20.9 92 +29 +31 очень душно 1014.7 1008.5 +19.3 +22.3
В 3 8000 м дымка 1/1 180 м
[Frnb]
+25.0 +22.4 86 +33 +38 очень душно 1014.9 1008.6
В 4 10 км дым 1/1 450 м
[Cu hum]
+25.9 +22.1 80 +34 +40 очень душно 1015.0 1008.8
ЮВ 3 6000 м дым 4/4 600 м
[Cu hum]
+26.7 +21.5 73 +34 +40 очень душно 1014.7 1008.5
ЮВ 3 10 км дым 4/4 600 м
[Cu hum]
+27.2 +20.3 66 +34 +41 очень душно 1013.8 1007.7
ЮВ 4 10 км дым 3/3 600 м
[Cu hum]
+28.1 +20.0 61 +34 +40 очень душно 1013.1 1007.0
ЮВ 4 10 км дым 4/4 600 м
[Cu hum]
+28.5 +20.1 60 +35 +39 очень душно 1012.7 1006.6
Ю 5 10 км дым 4/4 600 м
[Cu hum]
+28.3 +19.5 59 +34 +36 очень душно 1012.2 1006.1
ЮВ 4 10 км дым 3/3 600 м
[Cu hum]
+27.9 +19.9 62 +34 +35 очень душно 1011.9 1005.8
ЮВ 4 10 км дым 3/3 600 м
[Sc]
+27.0 +19.5 64 +33 +33 очень душно 1011.9 1005.8
ЮВ 3 10 км дым 3/3 600 м
[Sc]
+25.1 +19.9 73 +31 +31 очень душно 1012.1 1005.8
ЮВ 2 10 км дым 3/3 750 м
[Sc]
+24.3 +20.0 77 +30 +30 очень душно 1012.4 1006.2
ЮВ 4 10 км дым 6/6 750 м
[Sc]
+23.9 +19.9 78 +29 +29 душно 1012.4 1006.2 +22.1 +28.5
ЮВ 3 10 км дым 6/6 750 м
[Sc]
+23.7 +19.9 79 +29 +29 душно 1012.5 1006.4
ЮВ 3 10 км дым 6/6 750 м
[Sc]
+23.2 +18.8 76 +29 +29 душно 1013.0 1006.9
ЮВ 3 10 км дым 8/8 750 м
[Sc]
+22.8 +19.1 80 +29 +29 очень душно 1013.3 1007.2
ЮВ 2 8000 м дым 9/4 750 м
[Sc Ac As]
+22.3 +18.5 79 +28 +28 душно 1013.5 1007.4
ЮВ 3 8000 м дым 9/4 750 м
[Sc Ac As]
+21.9 +18.9 83 +27 +27 душно 1013.3 1007.2
Ю 3 8000 м дым 9/4 750 м
[Sc Ac As]
+21.5 +18.0 80 +26 +26 душно 1012.9 1006.8
ЮВ 1 10 км дымка 3/1 750 м
[Sc Ac As]
+21.1 +18.7 86 +25 +25 комфорт 1012.8 1006.6
ЮВ 2 8000 м дымка 6/3 750 м
[Sc Ac As]
+20.5 +18.4 88 +25 +25 комфорт 1012.5 1006.4
ЮВ 3 6000 м дымка туман 8/4 750 м
[Sc Ac As]
+20.6 +18.9 90 +25 +25 комфорт 1012.1 1006.0
Ю 2 8000 м дымка 6/4 750 м
[Sc Ac As]
+20.8 +18.8 88 +26 +26 душно 1012.7 1006.5
Ю 3 6000 м осадки на расстоянии туман 8/0
[Ac As Cs]
+20.2 +19.1 93 +24 +24 комфорт 1012.9 1006.6
Ю 4 6000 м осадки на расстоянии туман 8/0
[Ac As Cs]
+21.3 +19.3 88 +26 +27 душно 1013.3 1007.0 +19.8 +23.9
Ю 4 8000 м дымка 9/0
[Ac As]
+22.4 +19.6 84 +28 +30 душно 1014.7 1008.5
Ю 6 6000 м слаб. дождь туман 10/1 240 м
[Frnb Ac As]
+22.2 +19.7 86 +28 +29 душно 1014.3 1008.1
Ю 7 6000 м слаб. дождь туман 9/3 240 м
[Frnb Ac As]
+23.2 +19.8 81 +30 +31 очень душно 1013.1 1006.9
ЮВ 7 8000 м в посл. час дождь туман 10/3 240 м
[Frnb Ac As]
+23.6 +19.9 80 +29 +30 душно 1013.2 1007.0
ЮВ 6 10 км дымка {дождь} 10/3 240 м
[Frnb Ac As]
+23.9 +19.9 78 +29 +30 душно 1012.6 1006.4
Ю 6 10 км дымка {дождь} 10/5 240 м
[Frnb Ac As]
+23.5 +20.3 82 +29 +30 душно 1012.8 1006.6 0.0
Ю 7 6000 м слаб. дождь туман 10/4 450 м
[Sc Ac As]
+23.0 +20.9 88 +30 +31 очень душно 1012.7 1006.5
Ю 7 6000 м слаб. дождь туман 10/4 240 м
[Frnb Ac As]
+23.1 +20.5 85 +30 +30 очень душно 1012.8 1006.6
Ю 6 5000 м слаб. дождь туман 10/1 240 м
[Frnb As op]
+22.4 +20.3 88 +29 +29 очень душно 1013.4 1007.2
Ю 7 5000 м слаб. дождь 10/3 240 м
[Frnb As op]
+21.7 +20.3 92 +27 +27 душно 1014.2 1008.0
Ю 7 8000 м слаб. дождь туман 10/4 240 м
[Frnb As op]
+21.0 +19.8 93 +26 +26 душно 1015.0 1008.8
ЮВ 7 6000 м слаб. дождь туман 10/6 240 м
[Frnb As op]
+20.8 +19.6 93 +25 +25 комфорт 1015.7 1009.4 +20.6 +23.9 0.8
ЮВ 9 8000 м в посл. час дождь туман 10/6 240 м
[Frnb As op]
+20.4 +18.5 89 +24 +24 комфорт 1016.5 1010.2
ЮВ 8 8000 м дымка {дождь} 10/8 240 м
[Frnb As op]
+19.7 +17.4 87 +22 +22 комфорт 1016.8 1010.6
ЮВ 7 15 км {дождь} 10/10 240 м
[Frnb]
+19.5 +16.7 84 +21 +21 комфорт 1017.2 1011.0
ЮВ 7 15 км 10/10 240 м
[Frnb]
+19.0 +16.5 85 +20 +20 1017.3 1011.0
ЮВ 7 15 км 10/6 240 м
[Frnb Ac As]
+18.3 +15.8 85 +18 +18 1017.3 1011.0
ЮВ 7 15 км {дождь} 10/8 240 м
[Frnb Ac As]
+18.0 +15.7 86 +17 +17 1016.9 1015.7 0.0
ЮВ 7 15 км 10/10 240 м
[Frnb]
+17.6 +15.8 89 +17 +17 1016.8 1010.6
ЮВ 7 15 км 10/6 240 м
[Frnb Ac As]
+17.5 +15.3 87 +17 +17 1016.8 1010.6
ЮВ 7 15 км 10/4 240 м
[Frnb Ac As]
+17.6 +15.2 86 +17 +17 1017.0 1010.8
Ю 6 15 км 10/8 240 м
[Frnb Ac As]
+16.9 +15.0 89 +16 +16 1018.0 1011.7
Ю 5 15 км 10/8 240 м
[Frnb Ac As Cs]
+16.8 +15.1 90 +16 +16 1018.5 1012.2
Ю 5 15 км 10/6 240 м
[St Ac As]
+17.0 +15.0 88 +16 +16 1018.9 1012.6 +16.3 +20.8 0.8
ЮВ 5 15 км 10/6 240 м
[St Ac As]
+17.6 +15.2 86 +17 +17 1018.9 1012.6
ЮВ 6 6000 м слаб. морось 10/6 240 м
[Frnb Ac As]
+18.0 +15.7 86 +17 +18 1019.2 1012.9
ЮВ 6 6000 м слаб. морось 10/6 300 м
[Frnb Ac As]
+18.6 +15.9 84 +19 +20 1019.1 1012.8
ЮВ 5 5000 м слаб. морось 10/8 240 м
[Frnb Ac As]
+19.0 +16.9 88 +20 +21 1018.8 1012.5
ЮВ 7 6000 м слаб. морось 10/6 240 м
[Frnb Ac As]
+20.2 +16.8 81 +23 +23 комфорт 1018.0 1011.7
ЮВ 5 5000 м слаб. морось 10/8 240 м
[Frnb Ac As]
+20.0 +16.7 81 +23 +23 комфорт 1017.5 1011.2 0.0
ЮВ 5 6000 м слаб. морось 10/4 300 м
[Frnb Ac As]
+20.2 +17.5 84 +23 +24 комфорт 1017.0 1010.6
ЮВ 6 15 км в посл. час морось 10/5 450 м
[St Ac As]
+21.6 +17.6 78 +26 +26 душно 1016.8 1010.5
ЮВ 6 15 км {морось} 10/5 450 м
[St Ac As]
+21.4 +17.6 79 +26 +26 душно 1016.4 1010.1
ЮВ 4 15 км 10/4 450 м
[St Ac As]
+21.0 +17.8 82 +25 +25 комфорт 1017.0 1010.6
ЮВ 5 15 км 10/1 300 м
[St Ac As]
+21.1 +17.6 80 +25 +25 комфорт 1017.1 1010.8
ЮВ 6 15 км {морось} 10/0
[Ac As]
+21.0 +17.6 81 +25 +25 комфорт 1017.5 1011.2 +16.8 +21.6 0.0
ЮВ 4 15 км 10/0
[Ac As]
+20.8 +17.6 82 +25 +25 комфорт 1017.9 1011.6
ЮВ 5 15 км 10/0
[Ac As]
+20.6 +17.4 82 +24 +24 комфорт 1018.0 1011.7
В 6 15 км 10/0
[Ac As]
+20.8 +16.6 77 +24 +24 комфорт 1018.2 1012.0
ЮВ 6 15 км 10/0
[Ac As]
+20.3 +16.7 80 +23 +23 комфорт 1017.9 1011.6
ЮВ 5 15 км 10/0
[Ac As]
+20.0 +16.7 81 +23 +23 комфорт 1017.5 1011.3
В 6 15 км 10/0
[Ac As]
+19.8 +16.5 81 +22 +22 комфорт 1017.2 1010.9
В 6 15 км 10/1 300 м
[Frnb Ac As]
+19.6 +16.5 82 +21 +21 комфорт 1016.9 1010.6
В 6 15 км 10/1 300 м
[Frnb Ac As]
+19.4 +16.4 83 +21 +21 комфорт 1016.5 1010.2
В 10 15 км 10/1 300 м
[Frnb Ac As]
+19.4 +16.3 82 +20 +20 1016.5 1010.2
ЮВ 5 15 км 9/0
[Ac As]
+18.7 +16.2 85 +19 +19 1016.1 1009.8
В 7 15 км 9/5 300 м
[St Ac trans]
+19.0 +16.0 83 +20 +20 1016.1 1009.8 +18.3 +21.0 0.0
В 5 15 км 9/6 300 м
[St Ac trans]
+19.1 +16.1 83 +20 +21 1016.7 1010.5
В 6 5000 м слаб. морось 10/8 300 м
[Frnb Ac As]
+19.2 +16.9 87 +21 +21 комфорт 1016.3 1010.1
В 5 1000 м морось 10/8 300 м
[Frnb As op]
+19.3 +17.2 88 +21 +21 комфорт 1016.3 1010.1
ЮВ 4 8000 м слаб. дождь {морось} туман 10/4 240 м
[Frnb Ac As]
+19.8 +18.7 93 +23 +25 комфорт 1015.5 1009.3
В 4 2000 м слаб. морось {дождь} туман 10/5 210 м
[Frnb As op]
+19.9 +18.5 92 +23 +24 комфорт 1014.8 1008.6
ЮВ 3 1000 м морось {дождь} 10/8 180 м
[Frnb As op]
+19.9 +19.1 95 +23 +24 комфорт 1013.2 1007.0 6
ЮВ 4 4000 м слаб. морось 10/6 180 м
[Frnb As op]
+20.0 +19.1 95 +23 +24 комфорт 1013.2 1007.0
ЮВ 4 2000 м слаб. морось туман 10/6 180 м
[Frnb As op]
+20.2 +19.6 96 +24 +24 комфорт 1012.3 1006.1
ЮВ 3 2000 м слаб. морось туман 10/6 180 м
[Frnb As op]
+20.2 +19.7 97 +24 +24 комфорт 1012.2 1006.0
Ю 3 1500 м слаб. морось туман 10/6 180 м
[Frnb As op]
+20.2 +19.7 97 +24 +24 комфорт 1012.4 1006.2
Ю 3 1500 м сильн. морось туман 10/10 90 м
[Frnb]
+19.8 +19.8 100 +23 +23 комфорт 1013.0 1006.8
Ю 3 2000 м морось туман 10/10 90 м
[Frnb]
+19.8 +19.6 99 +23 +23 комфорт 1012.8 1006.6 +18.3 +20.4 3
ЮВ 3 2000 м морось туман 10/10 90 м
[Frnb]
+20.1 +19.6 97 +24 +24 комфорт 1012.9 1006.6
В 3 2000 м морось туман 10/10 90 м
[Frnb]
+20.4 +19.8 96 +25 +25 комфорт 1012.8 1006.6
ЮВ 2 3000 м морось туман 10/10 90 м
[Frnb]
+20.6 +20.3 98 +26 +26 душно 1013.0 1006.8
Ю 2 3000 м морось туман 10/10 90 м
[Frnb]
+20.6 +20.4 99 +26 +26 душно 1013.0 1006.8
ЮВ 2 5000 м в посл. час морось туман 10/10 90 м
[Frnb]
+20.7 +20.4 98 +26 +26 душно 1012.7 1006.5
ЮВ 2 5000 м дымка {морось} туман 10/10 90 м
[Frnb]
+20.9 +20.4 97 +27 +27 душно 1012.3 1006.1 0.4
ЮВ 2 5000 м дымка 10/10 120 м
[Frnb]
+20.9 +20.4 97 +27 +27 душно 1011.7 1005.4
Ю 2 5000 м дымка 10/10 120 м
[Frnb]
+20.8 +20.3 97 +26 +26 душно 1011.3 1005.0
Местоположение метеостанции Реконкиста (Аргентина): широта -29.18 долгота -59.70 высота над уровнем моря 53 м.
В архиве по умолчанию представлена погода в Реконкисте за последнюю неделю. Архивные данные за месяц целиком и за предыдущие месяцы, начиная с января 2011 года, Вы можете получить, выбрав интересующий диапазон дат из раскрывающегося списка и нажав кнопку "Найти!".
*Определитесь, кто Вы:
Внимание! Время в таблицах - всемирное. Для получения местного времени необходимо прибавить поправку, которая равна -3 ч.
Некоторые строки с данными для отдельных станций могут быть выделены курсивом. Это означает, что фактические данные отсутствуют по различным причинам, а приведенные значения являются расчетными модельными данными для данного пункта наблюдений.
Смотрите также архив погоды в соседних городах и на ближайших метеорологических станциях:
Партнеры нашего сайта:      
Пояснения к столбцам:
  • Ветер - указаны скорость ветра в м/с - средняя за 10 мин, порывы в срок и между сроками (в фигурных скобках) и направление, откуда дует ветер: С - северный,
  • СВ - северо-восточный, В - восточный, ЮВ - юго-восточный, Ю - южный, ЮЗ - юго-западный, З - западный, СЗ - северо-западный.
  • Видимость - горизонтальная дальность видимости в метрах или километрах. При видимости от 1 до 10 км при отсутствии осадков обычно наблюдается дымка, при ухудшении видимости до 1 км и менее - туман. В сухую погоду видимость может ухудшаться дымом, пылью или мглою.
  • Явления - указаны атмосферные явления, наблюдавшиеся в срок или в последний час перед сроком; фигурными скобками обозначены явления, наблюдавшиеся между сроками (за 1-3 часа до срока); квадратными скобками обозначены град или гололедные отложения с указанием их диаметра в мм.
  • Облачность - указаны через наклонную черту общая и нижняя облачность в баллах и высота нижней границы облаков в метрах; квадратными скобками обозначены формы облаков: Ci - перистые, Cs - перисто-слоистые, Cc - перисто-кучевые, Ac - высококучевые, As - высокослоистые, Sc - слоисто-кучевые, Ns - слоисто-дождевые, Cu - кучевые, Cb - кучево-дождевые. Подробнее классификацию облаков см. в Атласе облаков (PDF).
  • T - Температура воздуха - температура, измеренная на высоте 2 м над землей.
  • Td - Температура точки росы - температура, при понижении до которой содержащийся в воздухе водяной пар достигнет насыщения.
  • f - Относительная влажность воздуха - влажноcть воздуха, измеренная на высоте 2 м над землей.
  • Te - Эффективная температура - температура, которую ощущает одетый по сезону человек в тени. Характеристика душности погоды. При расчете учитывается влияние влажности воздуха и скорости ветра на теплоощущения человека.
  • Tes - Эффективная температура на солнце - температура, которую ощущает человек, с поправкой на солнечный нагрев. Характеристика знойности погоды. Зависит от высоты солнца над горизонтом, облачности и скорости ветра. Ночью, в пасмурную погоду, а также при ветре 12 м/с и более поправка равна нулю.
  • P - Атмосферное давление - приведенное к уровню моря атмосферное давление.
  • Po - Атмосферное давление - измеренное на уровне метеостанции атмосферное давление.
  • Tmin - Минимальная температура - минимум температуры воздуха на высоте 2 м над землей.
  • Tmax - Максимальная температура - максимум температуры воздуха на высоте 2 м над землей.
  • R - Количество осадков - Количество выпавших осадков за период времени, мм. При наведении курсора мыши на число - период времени, за который выпало указанное количество осадков.
  • R24 - Количество осадков - Количество выпавших осадков за 24 часа, мм.
  • S - Снежный покров - Высота снежного покрова, см. При наведении курсора мыши на число - состояние снежного покрова и степень покрытия местности в баллах.